When you browse on this site, cookies collect data to enhance your experience and personalize the content and advertising you see.
Visit our Privacy Policy to learn more. By continuing to use the site, you agree to this use of cookies and data.
  • Em Portugal
  • Lista de países
  • Para 7 dias
  • Temperatura da água
  • Mapas de satélite
  • Mapa do tempo
  • Widgets de tempo
  • user-avatar
    Iniciar Sessão

    Previsão horária em Redlino

    Hoje, 11 Dezembro, Terça-feira

    Tempo Temperatura Precipitação Vento Pressão Humidade
    00:00 +2°C° 0.6 mm 6 m/s 750 mmHg 82%
    01:00 +2°C° 0.6 mm 6 m/s 750 mmHg 82%
    02:00 +2°C° 0.4 mm 5 m/s 750 mmHg 83%
    03:00 +2°C° 0.4 mm 5 m/s 750 mmHg 83%
    04:00 +2°C° 0.4 mm 5 m/s 750 mmHg 83%
    05:00 +2°C° 0.2 mm 5 m/s 751 mmHg 83%
    06:00 +1°C° 0.2 mm 5 m/s 751 mmHg 84%
    07:00 +1°C° 0.2 mm 5 m/s 752 mmHg 84%
    08:00 +1°C° 0.2 mm 5 m/s 753 mmHg 84%
    09:00 +1°C° 0.2 mm 6 m/s 753 mmHg 83%
    10:00 +2°C° 0.2 mm 6 m/s 754 mmHg 82%
    11:00 +2°C° 0.2 mm 6 m/s 754 mmHg 81%
    12:00 +2°C° 0.2 mm 6 m/s 755 mmHg 79%
    13:00 +3°C° 0.2 mm 6 m/s 755 mmHg 77%
    14:00 +2°C° 0.1 mm 6 m/s 756 mmHg 79%
    15:00 +2°C° 0.1 mm 6 m/s 756 mmHg 81%
    16:00 +2°C° 0.1 mm 5 m/s 757 mmHg 83%
    17:00 +1°C° 0.1 mm 5 m/s 757 mmHg 84%
    18:00 +1°C° 0.1 mm 5 m/s 758 mmHg 85%
    19:00 +1°C° 0.1 mm 5 m/s 758 mmHg 86%
    20:00 +1°C° 0 mm 5 m/s 759 mmHg 87%
    21:00 +1°C° 0 mm 4 m/s 760 mmHg 88%
    22:00 0°C° 0 mm 4 m/s 760 mmHg 89%
    23:00 0°C° 0 mm 4 m/s 761 mmHg 90%

    Amanhã, 12 Dezembro, Quarta-feira

    Tempo Temperatura Precipitação Vento Pressão Humidade
    00:00 +1°C° 0 mm 3 m/s 761 mmHg 91%
    01:00 0°C° 0 mm 3 m/s 762 mmHg 91%
    02:00 0°C° 0 mm 3 m/s 762 mmHg 91%
    03:00 +1°C° 0 mm 2 m/s 762 mmHg 91%
    04:00 -1°C° 0 mm 2 m/s 763 mmHg 91%
    05:00 +1°C° 0.1 mm 2 m/s 763 mmHg 91%
    06:00 +1°C° 0.1 mm 2 m/s 764 mmHg 91%
    07:00 +1°C° 0.1 mm 2 m/s 764 mmHg 91%
    08:00 +1°C° 0.1 mm 2 m/s 764 mmHg 89%
    09:00 +2°C° 0.1 mm 2 m/s 765 mmHg 88%
    10:00 +2°C° 0.1 mm 2 m/s 765 mmHg 87%
    11:00 +3°C° 0.1 mm 2 m/s 765 mmHg 85%
    12:00 +2°C° 0.1 mm 3 m/s 765 mmHg 83%
    13:00 +3°C° 0.1 mm 3 m/s 765 mmHg 81%
    14:00 +2°C° 0.1 mm 3 m/s 765 mmHg 84%
    15:00 +2°C° 0.1 mm 3 m/s 766 mmHg 86%
    16:00 0°C° 0.1 mm 4 m/s 766 mmHg 89%
    17:00 0°C° 0.1 mm 4 m/s 766 mmHg 89%
    18:00 0°C° 0.1 mm 4 m/s 766 mmHg 90%
    19:00 0°C° 0.1 mm 4 m/s 766 mmHg 90%
    20:00 -1°C° 0.1 mm 4 m/s 766 mmHg 91%
    21:00 -1°C° 0.1 mm 4 m/s 766 mmHg 91%
    22:00 0°C° 0.1 mm 3 m/s 767 mmHg 91%
    23:00 0°C° 0 mm 3 m/s 767 mmHg 92%

    Depois de amanhã, 13 Dezembro, Quinta-feira

    Tempo Temperatura Precipitação Vento Pressão Humidade
    00:00 0°C° 0 mm 3 m/s 767 mmHg 92%
    01:00 0°C° 0 mm 3 m/s 767 mmHg 92%
    02:00 0°C° 0 mm 3 m/s 767 mmHg 92%
    03:00 0°C° 0 mm 3 m/s 767 mmHg 93%
    04:00 0°C° 0 mm 3 m/s 766 mmHg 93%
    05:00 0°C° 0 mm 3 m/s 766 mmHg 93%
    06:00 0°C° 0 mm 3 m/s 766 mmHg 93%
    07:00 0°C° 0 mm 3 m/s 766 mmHg 93%
    08:00 0°C° 0 mm 3 m/s 766 mmHg 91%
    09:00 0°C° 0 mm 3 m/s 767 mmHg 90%
    10:00 +1°C° 0 mm 3 m/s 767 mmHg 89%
    11:00 +1°C° 0 mm 3 m/s 767 mmHg 85%
    12:00 +1°C° 0 mm 3 m/s 766 mmHg 82%
    13:00 +2°C° 0 mm 3 m/s 766 mmHg 79%
    14:00 +1°C° 0 mm 3 m/s 766 mmHg 82%
    15:00 +1°C° 0 mm 3 m/s 766 mmHg 84%
    16:00 0°C° 0 mm 3 m/s 766 mmHg 87%
    17:00 0°C° 0 mm 3 m/s 766 mmHg 87%
    18:00 0°C° 0 mm 3 m/s 766 mmHg 86%
    19:00 0°C° 0 mm 3 m/s 766 mmHg 86%
    20:00 0°C° 0.1 mm 3 m/s 766 mmHg 87%
    21:00 0°C° 0.1 mm 3 m/s 767 mmHg 87%
    22:00 0°C° 0.1 mm 3 m/s 767 mmHg 87%
    23:00 +1°C° 0 mm 2 m/s 767 mmHg 87%

    14 Dezembro, Sexta-feira

    Tempo Temperatura Precipitação Vento Pressão Humidade
    00:00 +1°C° 0 mm 2 m/s 767 mmHg 88%
    01:00 -1°C° 0 mm 2 m/s 767 mmHg 88%
    02:00 -1°C° 0 mm 2 m/s 767 mmHg 88%
    03:00 -1°C° 0 mm 2 m/s 766 mmHg 88%
    04:00 +1°C° 0 mm 1 m/s 766 mmHg 88%
    05:00 +1°C° 0 mm 1 m/s 766 mmHg 88%
    06:00 +1°C° 0 mm 1 m/s 766 mmHg 88%
    07:00 -2°C° 0 mm 2 m/s 766 mmHg 88%
    08:00 -1°C° 0 mm 2 m/s 767 mmHg 86%
    09:00 -1°C° 0 mm 2 m/s 767 mmHg 85%
    10:00 -1°C° 0 mm 2 m/s 767 mmHg 83%
    11:00 -1°C° 0 mm 2 m/s 767 mmHg 80%
    12:00 +1°C° 0 mm 2 m/s 767 mmHg 76%
    13:00 +1°C° 0 mm 2 m/s 767 mmHg 73%
    14:00 -1°C° 0 mm 2 m/s 767 mmHg 76%
    15:00 -1°C° 0 mm 2 m/s 767 mmHg 80%
    16:00 -2°C° 0 mm 2 m/s 767 mmHg 83%
    17:00 -2°C° 0 mm 2 m/s 768 mmHg 84%
    18:00 -2°C° 0 mm 2 m/s 768 mmHg 85%
    19:00 -2°C° 0 mm 2 m/s 768 mmHg 86%
    20:00 -2°C° 0 mm 2 m/s 768 mmHg 87%
    21:00 -2°C° 0 mm 2 m/s 768 mmHg 87%
    22:00 -2°C° 0 mm 2 m/s 768 mmHg 87%
    23:00 -2°C° 0 mm 2 m/s 768 mmHg 87%

    15 Dezembro, Sábado

    Tempo Temperatura Precipitação Vento Pressão Humidade
    00:00 -2°C° 0 mm 2 m/s 769 mmHg 88%
    01:00 -2°C° 0 mm 2 m/s 769 mmHg 88%
    02:00 -2°C° 0 mm 2 m/s 769 mmHg 88%
    03:00 0°C° 0 mm 1 m/s 769 mmHg 88%
    04:00 0°C° 0 mm 1 m/s 769 mmHg 89%
    05:00 0°C° 0 mm 1 m/s 769 mmHg 89%
    06:00 -2°C° 0 mm 2 m/s 769 mmHg 89%
    07:00 -2°C° 0 mm 2 m/s 769 mmHg 90%
    08:00 -2°C° 0 mm 2 m/s 769 mmHg 88%
    09:00 -2°C° 0 mm 2 m/s 770 mmHg 86%
    10:00 -1°C° 0 mm 2 m/s 770 mmHg 85%
    11:00 -1°C° 0 mm 2 m/s 770 mmHg 83%
    12:00 -1°C° 0 mm 2 m/s 770 mmHg 81%
    13:00 +1°C° 0 mm 2 m/s 770 mmHg 79%
    14:00 -1°C° 0 mm 2 m/s 770 mmHg 82%
    15:00 -1°C° 0 mm 2 m/s 770 mmHg 85%
    16:00 -2°C° 0 mm 2 m/s 770 mmHg 88%
    17:00 -2°C° 0 mm 2 m/s 771 mmHg 88%
    18:00 -2°C° 0 mm 2 m/s 771 mmHg 88%
    19:00 -2°C° 0 mm 2 m/s 771 mmHg 88%
    20:00 -2°C° 0 mm 3 m/s 771 mmHg 88%
    21:00 -2°C° 0 mm 3 m/s 771 mmHg 88%
    22:00 -2°C° 0 mm 3 m/s 771 mmHg 88%
    23:00 -2°C° 0 mm 3 m/s 770 mmHg 89%

    16 Dezembro, Domingo

    Tempo Temperatura Precipitação Vento Pressão Humidade
    00:00 -2°C° 0 mm 3 m/s 770 mmHg 90%
    01:00 -4°C° 0 mm 3 m/s 770 mmHg 91%
    02:00 -4°C° 0 mm 3 m/s 770 mmHg 91%
    03:00 -4°C° 0 mm 3 m/s 770 mmHg 91%
    04:00 -4°C° 0 mm 4 m/s 769 mmHg 91%
    05:00 -4°C° 0 mm 4 m/s 769 mmHg 91%
    06:00 -4°C° 0 mm 4 m/s 769 mmHg 90%
    07:00 -4°C° 0 mm 4 m/s 769 mmHg 90%
    08:00 -5°C° 0 mm 5 m/s 769 mmHg 87%
    09:00 -4°C° 0 mm 5 m/s 769 mmHg 85%
    10:00 -4°C° 0 mm 5 m/s 768 mmHg 82%
    11:00 -4°C° 0 mm 5 m/s 768 mmHg 80%
    12:00 -2°C° 0 mm 5 m/s 768 mmHg 79%
    13:00 -2°C° 0 mm 5 m/s 767 mmHg 77%
    14:00 -2°C° 0 mm 5 m/s 767 mmHg 78%
    15:00 -4°C° 0 mm 5 m/s 767 mmHg 80%
    16:00 -4°C° 0 mm 5 m/s 766 mmHg 82%
    17:00 -4°C° 0 mm 5 m/s 766 mmHg 81%
    18:00 -4°C° 0 mm 6 m/s 766 mmHg 81%
    19:00 -4°C° 0 mm 6 m/s 766 mmHg 80%
    20:00 -4°C° 0 mm 6 m/s 766 mmHg 79%
    21:00 -4°C° 0 mm 6 m/s 765 mmHg 78%
    22:00 -4°C° 0 mm 6 m/s 765 mmHg 76%
    23:00 -4°C° 0 mm 6 m/s 765 mmHg 77%
    Mostrar mais